Terug naar catalogus

ONEWEB-0135

ActiefCommunicatiePO
NORAD 47281·PAYLOAD·🇬🇧 United Kingdom

Gelanceerd Dec 18, 2020 vanaf Vostochny Cosmodrome

Loading…

Volgende Passages (komende 24 uur)

TLE

VersSource: CelesTrak SupGP

Epoch: Sep 14, 2026, 20:23 UTC

1 47281C 20100Z   26257.84946019 -.00001362  00000+0 -37906-2 0  2575
2 47281  87.8973 332.8634 0001887  92.1080  10.0743 13.12440963    18

Volg ONEWEB-0135 in realtime met AllMySat

Download on the App Store